timestamp,wind_dir_avg,wind_spd_max_dir,wind_spd_avg,wind_spd_gust,battery_voltage,lat,long
2018-12-10 00:00:00+00:00,286.0,286.0,13.6,15.65,,47.59359,-54.27349
2018-12-10 00:10:00+00:00,285.0,288.0,10.63,13.44,,47.59359,-54.27349
2018-12-10 00:20:00+00:00,296.0,298.0,13.19,15.42,,47.59359,-54.27349
2018-12-10 00:30:00+00:00,291.0,292.0,11.95,14.75,,47.59359,-54.27349
2018-12-10 00:40:00+00:00,298.0,300.0,13.5,15.52,,47.59359,-54.27349
2018-12-10 00:50:00+00:00,294.0,305.0,12.59,15.1,,47.59359,-54.27349
2018-12-10 01:00:00+00:00,300.0,302.0,13.31,15.2,,47.59359,-54.27349
2018-12-10 01:10:00+00:00,293.0,289.0,11.06,13.19,,47.59359,-54.27349
2018-12-10 01:20:00+00:00,295.0,302.0,14.18,16.68,,47.59359,-54.27349
2018-12-10 01:30:00+00:00,299.0,299.0,12.88,16.14,,47.59359,-54.27349
2018-12-10 01:40:00+00:00,295.0,300.0,15.29,18.65,,47.59359,-54.27349
2018-12-10 01:50:00+00:00,291.0,293.0,13.12,15.4,,47.59359,-54.27349
2018-12-10 02:00:00+00:00,291.0,300.0,10.68,12.26,,47.59359,-54.27349
2018-12-10 02:10:00+00:00,294.0,302.0,10.82,13.31,,47.59359,-54.27349
2018-12-10 02:20:00+00:00,292.0,294.0,14.03,17.46,,47.59359,-54.27349
2018-12-10 02:30:00+00:00,301.0,312.0,13.55,16.6,,47.59359,-54.27349
2018-12-10 02:40:00+00:00,301.0,301.0,12.7,14.22,,47.59359,-54.27349
2018-12-10 02:50:00+00:00,297.0,294.0,13.14,15.4,,47.59359,-54.27349
2018-12-10 03:00:00+00:00,301.0,302.0,14.15,16.39,,47.59359,-54.27349
2018-12-10 03:10:00+00:00,305.0,298.0,13.62,16.92,,47.59359,-54.27349
2018-12-10 03:20:00+00:00,307.0,315.0,12.03,14.07,,47.59359,-54.27349
2018-12-10 03:30:00+00:00,303.0,307.0,10.75,13.23,,47.59359,-54.27349
2018-12-10 03:40:00+00:00,310.0,307.0,13.87,17.67,,47.59359,-54.27349
2018-12-10 03:50:00+00:00,301.0,299.0,11.62,12.96,,47.59359,-54.27349
2018-12-10 04:00:00+00:00,299.0,296.0,11.3,14.25,,47.59359,-54.27349
2018-12-10 04:10:00+00:00,299.0,298.0,11.38,13.99,,47.59359,-54.27349
2018-12-10 04:20:00+00:00,295.0,291.0,13.41,15.41,,47.59359,-54.27349
2018-12-10 04:30:00+00:00,304.0,311.0,13.68,17.27,,47.59359,-54.27349
2018-12-10 04:40:00+00:00,297.0,297.0,11.93,13.92,,47.59359,-54.27349
2018-12-10 04:50:00+00:00,294.0,286.0,12.72,16.39,,47.59359,-54.27349
2018-12-10 05:00:00+00:00,296.0,291.0,12.94,15.38,,47.59359,-54.27349
2018-12-10 05:10:00+00:00,300.0,306.0,12.94,14.79,,47.59359,-54.27349
2018-12-10 05:20:00+00:00,297.0,287.0,11.64,12.86,,47.59359,-54.27349
2018-12-10 05:30:00+00:00,293.0,297.0,10.64,12.15,,47.59359,-54.27349
2018-12-10 05:40:00+00:00,291.0,296.0,11.28,14.78,,47.59359,-54.27349
2018-12-10 05:50:00+00:00,292.0,284.0,10.82,13.59,,47.59359,-54.27349
2018-12-10 06:00:00+00:00,287.0,290.0,10.96,13.97,,47.59359,-54.27349
2018-12-10 06:10:00+00:00,293.0,302.0,11.1,12.91,,47.59359,-54.27349
2018-12-10 06:20:00+00:00,286.0,289.0,13.43,16.74,,47.59359,-54.27349
2018-12-10 06:30:00+00:00,285.0,286.0,13.62,15.28,,47.59359,-54.27349
2018-12-10 06:40:00+00:00,284.0,292.0,12.69,15.46,,47.59359,-54.27349
2018-12-10 06:50:00+00:00,286.0,286.0,11.49,13.43,,47.59359,-54.27349
2018-12-10 07:00:00+00:00,287.0,292.0,12.13,14.09,,47.59359,-54.27349
2018-12-10 07:10:00+00:00,294.0,299.0,11.29,14.12,,47.59359,-54.27349
2018-12-10 07:20:00+00:00,291.0,278.0,11.01,13.23,,47.59359,-54.27349
2018-12-10 07:30:00+00:00,278.0,290.0,9.3,11.68,,47.59359,-54.27349
2018-12-10 07:40:00+00:00,276.0,283.0,10.44,13.57,,47.59359,-54.27349
2018-12-10 07:50:00+00:00,280.0,282.0,10.43,12.0,,47.59359,-54.27349
2018-12-10 08:00:00+00:00,282.0,281.0,10.03,13.33,,47.59359,-54.27349
2018-12-10 08:10:00+00:00,289.0,293.0,10.44,12.75,,47.59359,-54.27349
2018-12-10 08:20:00+00:00,292.0,297.0,8.82,11.23,,47.59359,-54.27349
2018-12-10 08:30:00+00:00,290.0,293.0,9.27,11.29,,47.59359,-54.27349
2018-12-10 08:40:00+00:00,283.0,281.0,8.55,9.69,,47.59359,-54.27349
2018-12-10 08:50:00+00:00,286.0,297.0,7.29,8.27,,47.59359,-54.27349
2018-12-10 09:00:00+00:00,281.0,277.0,11.15,13.09,,47.59359,-54.27349
2018-12-10 09:10:00+00:00,297.0,298.0,13.14,16.7,,47.59359,-54.27349
2018-12-10 09:20:00+00:00,296.0,300.0,10.06,11.67,,47.59359,-54.27349
2018-12-10 09:30:00+00:00,302.0,303.0,10.98,12.64,,47.59359,-54.27349
2018-12-10 09:40:00+00:00,297.0,295.0,9.75,11.74,,47.59359,-54.27349
2018-12-10 09:50:00+00:00,300.0,304.0,8.09,10.12,,47.59359,-54.27349
2018-12-10 10:00:00+00:00,299.0,301.0,8.48,9.57,,47.59359,-54.27349
2018-12-10 10:10:00+00:00,289.0,290.0,8.25,9.53,,47.59359,-54.27349
2018-12-10 10:20:00+00:00,292.0,299.0,8.22,10.74,,47.59359,-54.27349
2018-12-10 10:30:00+00:00,292.0,288.0,7.33,8.66,,47.59359,-54.27349
2018-12-10 10:40:00+00:00,296.0,295.0,10.37,12.63,,47.59359,-54.27349
2018-12-10 10:50:00+00:00,294.0,292.0,8.09,9.4,,47.59359,-54.27349
2018-12-10 11:00:00+00:00,303.0,304.0,9.07,11.58,,47.59359,-54.27349
2018-12-10 11:10:00+00:00,312.0,313.0,8.13,9.66,,47.59359,-54.27349
2018-12-10 11:20:00+00:00,317.0,325.0,6.38,7.39,,47.59359,-54.27349
2018-12-10 11:30:00+00:00,310.0,309.0,6.85,7.9,,47.59359,-54.27349
2018-12-10 11:40:00+00:00,287.0,282.0,7.8,9.53,,47.59359,-54.27349
2018-12-10 11:50:00+00:00,284.0,285.0,7.26,8.12,,47.59359,-54.27349
2018-12-10 12:00:00+00:00,304.0,301.0,6.72,7.53,,47.59359,-54.27349
2018-12-10 12:10:00+00:00,308.0,317.0,6.39,8.29,,47.59359,-54.27349
2018-12-10 12:20:00+00:00,313.0,289.0,4.97,7.17,,47.59359,-54.27349
2018-12-10 12:30:00+00:00,284.0,281.0,4.99,5.79,,47.59359,-54.27349
2018-12-10 12:40:00+00:00,286.0,289.0,6.03,7.67,,47.59359,-54.27349
2018-12-10 12:50:00+00:00,282.0,287.0,7.44,10.06,,47.59359,-54.27349
2018-12-10 13:00:00+00:00,279.0,281.0,6.68,7.63,,47.59359,-54.27349
2018-12-10 13:10:00+00:00,278.0,279.0,7.14,7.67,,47.59359,-54.27349
2018-12-10 13:20:00+00:00,286.0,284.0,5.87,6.65,,47.59359,-54.27349
2018-12-10 13:30:00+00:00,288.0,284.0,4.64,5.96,,47.59359,-54.27349
2018-12-10 13:40:00+00:00,272.0,268.0,4.99,5.55,,47.59359,-54.27349
2018-12-10 13:50:00+00:00,287.0,288.0,6.07,7.27,,47.59359,-54.27349
2018-12-10 14:00:00+00:00,295.0,297.0,7.01,8.18,,47.59359,-54.27349
2018-12-10 14:10:00+00:00,286.0,288.0,6.48,7.38,,47.59359,-54.27349
2018-12-10 14:20:00+00:00,303.0,305.0,5.97,7.08,,47.59359,-54.27349
2018-12-10 14:30:00+00:00,300.0,303.0,6.31,7.33,,47.59359,-54.27349
2018-12-10 14:40:00+00:00,303.0,306.0,5.48,6.2,,47.59359,-54.27349
2018-12-10 14:50:00+00:00,306.0,309.0,6.4,7.34,,47.59359,-54.27349
2018-12-10 15:00:00+00:00,297.0,297.0,6.32,7.14,,47.59359,-54.27349
2018-12-10 15:10:00+00:00,286.0,285.0,4.83,5.65,,47.59359,-54.27349
2018-12-10 15:20:00+00:00,289.0,283.0,6.32,7.39,,47.59359,-54.27349
2018-12-10 15:30:00+00:00,281.0,283.0,5.96,6.78,,47.59359,-54.27349
2018-12-10 15:40:00+00:00,267.0,268.0,6.55,7.81,,47.59359,-54.27349
2018-12-10 15:50:00+00:00,280.0,285.0,10.2,12.26,,47.59359,-54.27349
2018-12-10 16:00:00+00:00,272.0,276.0,8.29,9.3,,47.59359,-54.27349
2018-12-10 16:10:00+00:00,277.0,275.0,8.93,10.17,,47.59359,-54.27349
2018-12-10 16:20:00+00:00,274.0,273.0,8.25,9.32,,47.59359,-54.27349
2018-12-10 16:30:00+00:00,269.0,264.0,8.0,9.02,,47.59359,-54.27349
2018-12-10 16:40:00+00:00,280.0,283.0,7.35,7.94,,47.59359,-54.27349
2018-12-10 16:50:00+00:00,292.0,298.0,7.99,9.49,,47.59359,-54.27349
2018-12-10 17:00:00+00:00,298.0,301.0,9.18,10.19,,47.59359,-54.27349
2018-12-10 17:10:00+00:00,291.0,303.0,6.91,7.79,,47.59359,-54.27349
2018-12-10 17:20:00+00:00,285.0,283.0,6.7,8.13,,47.59359,-54.27349
2018-12-10 17:30:00+00:00,277.0,271.0,7.76,8.79,,47.59359,-54.27349
2018-12-10 17:40:00+00:00,273.0,271.0,7.28,8.24,,47.59359,-54.27349
2018-12-10 17:50:00+00:00,275.0,277.0,8.65,10.65,,47.59359,-54.27349
2018-12-10 18:00:00+00:00,288.0,289.0,8.3,9.69,,47.59359,-54.27349
2018-12-10 18:10:00+00:00,283.0,287.0,7.93,8.86,,47.59359,-54.27349
2018-12-10 18:20:00+00:00,271.0,262.0,7.1,8.73,,47.59359,-54.27349
2018-12-10 18:30:00+00:00,267.0,265.0,7.23,8.11,,47.59359,-54.27349
2018-12-10 18:40:00+00:00,256.0,260.0,6.47,7.2,,47.59359,-54.27349
2018-12-10 18:50:00+00:00,261.0,263.0,6.59,7.6,,47.59359,-54.27349
2018-12-10 19:00:00+00:00,253.0,255.0,6.29,7.63,,47.59359,-54.27349
2018-12-10 19:10:00+00:00,252.0,253.0,6.62,7.57,,47.59359,-54.27349
2018-12-10 19:20:00+00:00,280.0,282.0,4.55,5.55,,47.59359,-54.27349
2018-12-10 19:30:00+00:00,243.0,239.0,6.01,7.17,,47.59359,-54.27349
2018-12-10 19:40:00+00:00,277.0,280.0,6.41,8.23,,47.59359,-54.27349
2018-12-10 19:50:00+00:00,257.0,260.0,5.49,6.61,,47.59359,-54.27349
2018-12-10 20:00:00+00:00,257.0,256.0,4.8,5.8,,47.59359,-54.27349
2018-12-10 20:10:00+00:00,259.0,260.0,5.35,6.65,,47.59359,-54.27349
2018-12-10 20:20:00+00:00,253.0,267.0,5.32,6.79,,47.59359,-54.27349
2018-12-10 20:30:00+00:00,264.0,263.0,5.53,6.84,,47.59359,-54.27349
2018-12-10 20:40:00+00:00,249.0,252.0,6.12,7.06,,47.59359,-54.27349
2018-12-10 20:50:00+00:00,259.0,257.0,6.6,8.29,,47.59359,-54.27349
2018-12-10 21:00:00+00:00,270.0,268.0,6.39,6.93,,47.59359,-54.27349
2018-12-10 21:10:00+00:00,264.0,265.0,5.87,7.08,,47.59359,-54.27349
2018-12-10 21:20:00+00:00,263.0,263.0,7.46,8.65,,47.59359,-54.27349
2018-12-10 21:30:00+00:00,262.0,263.0,5.97,7.15,,47.59359,-54.27349
2018-12-10 21:40:00+00:00,283.0,283.0,6.75,7.84,,47.59359,-54.27349
2018-12-10 21:50:00+00:00,281.0,287.0,5.61,6.57,,47.59359,-54.27349
2018-12-10 22:00:00+00:00,271.0,268.0,4.6,5.41,,47.59359,-54.27349
2018-12-10 22:10:00+00:00,271.0,273.0,5.7,6.26,,47.59359,-54.27349
2018-12-10 22:20:00+00:00,269.0,268.0,5.69,6.39,,47.59359,-54.27349
2018-12-10 22:30:00+00:00,260.0,262.0,4.77,5.35,,47.59359,-54.27349
2018-12-10 22:40:00+00:00,270.0,276.0,4.52,5.31,,47.59359,-54.27349
2018-12-10 22:50:00+00:00,286.0,278.0,4.69,5.56,,47.59359,-54.27349
2018-12-10 23:00:00+00:00,292.0,287.0,4.42,5.89,,47.59359,-54.27349
2018-12-10 23:10:00+00:00,282.0,285.0,3.31,3.71,,47.59359,-54.27349
2018-12-10 23:20:00+00:00,300.0,310.0,3.05,3.7,,47.59359,-54.27349
2018-12-10 23:30:00+00:00,301.0,305.0,2.86,3.47,,47.59359,-54.27349
2018-12-10 23:40:00+00:00,284.0,286.0,3.82,4.41,,47.59359,-54.27349
2018-12-10 23:50:00+00:00,328.0,326.0,3.41,4.25,,47.59359,-54.27349
